This is the latest recevied weather packets stored in our database for station/object VO2AGO. If no packets are shown the sender has not sent any weather packets the latest 10 day(s).
| Time | Temp. | Humidity | Pressure | Rain* | Wind** | Luminosity | Snow |
|---|---|---|---|---|---|---|---|
| 1777376602 | 5.56° C | - | - | - | 0 m/s | 1062 W/m² | - |
| 1777376152 | 6.11° C | - | - | - | 0 m/s | 972 W/m² | - |
| 1777375702 | 5.56° C | - | - | - | 0 m/s | 909 W/m² | - |
| 1777375253 | 5° C | - | - | - | 0 m/s | 780 W/m² | - |
| 1777374802 | 3.89° C | - | - | - | 0 m/s | 630 W/m² | - |
| 1777374352 | 2.78° C | - | - | - | 0 m/s | 614 W/m² | - |
| 1777373903 | 0.56° C | - | - | - | 0 m/s | 642 W/m² | - |
| 1777373453 | -0.56° C | - | - | - | 0 m/s | 216 W/m² | - |
| 1777373001 | -1.11° C | - | - | - | 0 m/s | 197 W/m² | - |
| 1777372552 | -1.67° C | - | - | - | 0 m/s | 187 W/m² | - |
| 1777372103 | -1.67° C | - | - | - | 0 m/s | 180 W/m² | - |
| 1777371653 | -1.67° C | - | - | - | 0 m/s | 169 W/m² | - |
| 1777371201 | -1.67° C | - | - | - | 0 m/s | 177 W/m² | - |
| 1777370752 | -2.22° C | - | - | - | 0 m/s | 183 W/m² | - |
| 1777370302 | -2.22° C | - | - | - | 0 m/s | 150 W/m² | - |
| 1777369851 | -2.78° C | - | - | - | 0 m/s | 117 W/m² | - |
| 1777369402 | -2.78° C | - | - | - | 0 m/s | 111 W/m² | - |
| 1777368952 | -3.33° C | - | - | - | 0 m/s | 80 W/m² | - |
| 1777368502 | -3.33° C | - | - | - | 0 m/s | 59 W/m² | - |
| 1777368052 | -3.33° C | - | - | - | 0 m/s | 37 W/m² | - |
| 1777367602 | -3.33° C | - | - | - | 0 m/s | 25 W/m² | - |
| 1777367152 | -3.33° C | - | - | - | 0 m/s | 14 W/m² | - |
| 1777366703 | -3.33° C | - | - | - | 0 m/s | 8 W/m² | - |
| 1777366252 | -3.33° C | - | - | - | 0 m/s | 4 W/m² | - |
| 1777365802 | -2.78° C | - | - | - | 0 m/s | 2 W/m² | - |
* Rain since midnight (hover to see other rain measurements)
** Current wind speed in m/s (hover to see current wind gust speed)